| time (UTC) | temp F | wind direction | speed knots | gust knots | rain 1hr in | rain 24hr in | rain mn in | humidity % | barometer mb |
| 20260503050022 | 33 | 260 | 0.0 | 0.0 | 0.00 | 0.00 | 0.00 | 80 | 1016.7 |
| 20260503045509 | 34 | 260 | 0.0 | 0.0 | 0.00 | 0.00 | 0.00 | 80 | 1016.8 |
| 20260503045013 | 34 | 260 | 0.0 | 0.0 | 0.00 | 0.00 | 0.00 | 79 | 1016.9 |
| 20260503044536 | 34 | 260 | 0.0 | 0.0 | 0.00 | 0.00 | 0.00 | 79 | 1016.9 |
| 20260503044012 | 34 | 260 | 0.0 | 0.0 | 0.00 | 0.00 | 0.00 | 79 | 1016.9 |
| 20260503043505 | 34 | 260 | 0.0 | 0.0 | 0.00 | 0.00 | 0.00 | 78 | 1016.9 |
| 20260503043023 | 34 | 260 | 0.0 | 0.0 | 0.00 | 0.00 | 0.00 | 78 | 1016.9 |
| 20260503042506 | 35 | 260 | 0.0 | 0.0 | 0.00 | 0.00 | 0.00 | 77 | 1017.0 |
| 20260503042009 | 35 | 260 | 0.0 | 0.0 | 0.00 | 0.00 | 0.00 | 76 | 1017.0 |
| 20260503041525 | 35 | 260 | 0.0 | 0.0 | 0.00 | 0.00 | 0.00 | 75 | 1016.9 |
| 20260503041006 | 35 | 260 | 0.0 | 0.0 | 0.00 | 0.00 | 0.00 | 75 | 1016.9 |
| 20260503040509 | 35 | 260 | 0.0 | 0.0 | 0.00 | 0.00 | 0.00 | 75 | 1017.0 |
| 20260503040026 | 35 | 260 | 0.0 | 0.0 | 0.00 | 0.00 | 0.00 | 75 | 1017.0 |
| 20260503035508 | 35 | 260 | 0.0 | 0.0 | 0.00 | 0.00 | 0.00 | 74 | 1017.0 |
| 20260503035011 | 35 | 260 | 0.0 | 0.0 | 0.00 | 0.00 | 0.00 | 75 | 1017.0 |
| 20260503034524 | 35 | 260 | 0.0 | 0.0 | 0.00 | 0.00 | 0.00 | 74 | 1017.1 |
| 20260503034010 | 36 | 260 | 0.0 | 0.0 | 0.00 | 0.00 | 0.00 | 73 | 1017.1 |
| 20260503033512 | 36 | 260 | 0.0 | 0.0 | 0.00 | 0.00 | 0.00 | 73 | 1017.1 |
| 20260503033023 | 36 | 260 | 0.0 | 0.0 | 0.00 | 0.00 | 0.00 | 72 | 1017.1 |
| 20260503032509 | 36 | 260 | 0.0 | 0.0 | 0.00 | 0.00 | 0.00 | 71 | 1017.1 |
| 20260503032009 | 36 | 260 | 0.0 | 0.0 | 0.00 | 0.00 | 0.00 | 71 | 1017.1 |
| 20260503031525 | 36 | 260 | 0.0 | 0.0 | 0.00 | 0.00 | 0.00 | 70 | 1017.1 |
| 20260503031006 | 36 | 260 | 0.0 | 0.0 | 0.00 | 0.00 | 0.00 | 71 | 1017.1 |
| 20260503030511 | 36 | 260 | 0.0 | 0.0 | 0.00 | 0.00 | 0.00 | 71 | 1017.2 |
| 20260503030028 | 36 | 260 | 0.0 | 0.0 | 0.00 | 0.00 | 0.00 | 70 | 1017.2 |
| 20260503025509 | 36 | 260 | 0.0 | 0.0 | 0.00 | 0.00 | 0.00 | 69 | 1017.2 |
| 20260503025008 | 36 | 260 | 0.0 | 0.0 | 0.00 | 0.00 | 0.00 | 69 | 1017.2 |
| 20260503024526 | 37 | 260 | 0.0 | 0.0 | 0.00 | 0.00 | 0.00 | 68 | 1017.3 |
| 20260503024012 | 37 | 260 | 0.0 | 0.0 | 0.00 | 0.00 | 0.00 | 67 | 1017.3 |
| 20260503023510 | 37 | 260 | 0.0 | 0.0 | 0.00 | 0.00 | 0.00 | 67 | 1017.3 |
| 20260503023030 | 37 | 260 | 0.0 | 0.0 | 0.00 | 0.00 | 0.00 | 66 | 1017.3 |
| 20260503022509 | 37 | 260 | 0.0 | 0.0 | 0.00 | 0.00 | 0.00 | 65 | 1017.4 |
| 20260503022015 | 37 | 260 | 0.0 | 0.0 | 0.00 | 0.00 | 0.00 | 65 | 1017.3 |
| 20260503021526 | 37 | 260 | 0.0 | 0.0 | 0.00 | 0.00 | 0.00 | 65 | 1017.3 |
| 20260503021009 | 38 | 260 | 0.0 | 0.0 | 0.00 | 0.00 | 0.00 | 65 | 1017.3 |
| 20260503020509 | 38 | 260 | 0.0 | 0.0 | 0.00 | 0.00 | 0.00 | 64 | 1017.3 |
| 20260503020028 | 38 | 260 | 0.0 | 0.0 | 0.00 | 0.00 | 0.00 | 63 | 1017.4 |
| 20260503015507 | 38 | 260 | 0.0 | 0.0 | 0.00 | 0.00 | 0.00 | 61 | 1017.3 |
| 20260503015005 | 39 | 260 | 0.0 | 0.0 | 0.00 | 0.00 | 0.00 | 61 | 1017.3 |
| 20260503014522 | 39 | 260 | 0.0 | 0.0 | 0.00 | 0.00 | 0.00 | 59 | 1017.2 |
| 20260503014008 | 39 | 260 | 0.0 | 0.0 | 0.00 | 0.00 | 0.00 | 59 | 1017.2 |
| 20260503013513 | 40 | 260 | 0.0 | 0.0 | 0.00 | 0.00 | 0.00 | 58 | 1017.2 |
| 20260503013033 | 40 | 260 | 0.0 | 0.0 | 0.00 | 0.00 | 0.00 | 57 | 1017.1 |
| 20260503012510 | 40 | 260 | 0.0 | 0.0 | 0.00 | 0.00 | 0.00 | 56 | 1017.0 |
| 20260503012014 | 41 | 260 | 0.0 | 0.9 | 0.00 | 0.00 | 0.00 | 53 | 1016.9 |
| 20260503011529 | 41 | 260 | 0.0 | 0.9 | 0.00 | 0.00 | 0.00 | 53 | 1017.0 |
| 20260503011011 | 42 | 260 | 0.0 | 0.9 | 0.00 | 0.00 | 0.00 | 52 | 1017.0 |
| 20260503010510 | 42 | 260 | 0.0 | 0.9 | 0.00 | 0.00 | 0.00 | 50 | 1017.0 |
| 20260503010028 | 43 | 260 | 0.0 | 0.9 | 0.00 | 0.00 | 0.00 | 48 | 1016.9 |
| 20260503005509 | 43 | 260 | 0.0 | 2.6 | 0.00 | 0.00 | 0.00 | 47 | 1016.9 |
| 20260503005006 | 44 | 260 | 0.0 | 2.6 | 0.00 | 0.00 | 0.00 | 46 | 1016.9 |
| 20260503004526 | 44 | 298 | 0.9 | 3.5 | 0.00 | 0.00 | 0.00 | 45 | 1017.0 |
| 20260503004009 | 44 | 245 | 1.7 | 3.5 | 0.00 | 0.00 | 0.00 | 44 | 1017.0 |
| 20260503003507 | 45 | 276 | 1.7 | 5.2 | 0.00 | 0.00 | 0.00 | 44 | 1017.0 |
| 20260503003025 | 45 | 257 | 1.7 | 5.2 | 0.00 | 0.00 | 0.00 | 44 | 1016.9 |
| 20260503002510 | 45 | 280 | 1.7 | 7.0 | 0.00 | 0.00 | 0.00 | 43 | 1016.9 |
| 20260503002012 | 46 | 292 | 2.6 | 7.8 | 0.00 | 0.00 | 0.00 | 42 | 1016.9 |
| 20260503001526 | 46 | 290 | 3.5 | 7.8 | 0.00 | 0.00 | 0.00 | 41 | 1016.9 |
| 20260503001014 | 46 | 279 | 1.7 | 6.1 | 0.00 | 0.00 | 0.00 | 42 | 1016.9 |
| 20260503000509 | 47 | 274 | 2.6 | 7.0 | 0.00 | 0.00 | 0.00 | 42 | 1016.8 |
| 20260503000036 | 47 | 279 | 3.5 | 7.8 | 0.00 | 0.00 | 0.00 | 42 | 1016.8 |
| 20260502235507 | 47 | 300 | 2.6 | 10.4 | 0.00 | 0.00 | 0.00 | 41 | 1016.8 |
| 20260502235006 | 47 | 285 | 5.2 | 10.4 | 0.00 | 0.00 | 0.00 | 41 | 1016.9 |
| 20260502234522 | 47 | 295 | 7.0 | 10.4 | 0.00 | 0.00 | 0.00 | 41 | 1016.9 |
| 20260502234009 | 48 | 264 | 1.7 | 9.6 | 0.00 | 0.00 | 0.00 | 41 | 1016.8 |
| 20260502233507 | 48 | 248 | 4.3 | 9.6 | 0.00 | 0.00 | 0.00 | 41 | 1016.8 |
| 20260502233026 | 48 | 276 | 4.3 | 11.3 | 0.00 | 0.00 | 0.00 | 41 | 1016.9 |
| 20260502232509 | 48 | 290 | 5.2 | 11.3 | 0.00 | 0.00 | 0.00 | 43 | 1016.9 |
| 20260502232011 | 48 | 296 | 6.1 | 10.4 | 0.00 | 0.00 | 0.00 | 40 | 1016.8 |
| 20260502231530 | 48 | 273 | 5.2 | 10.4 | 0.00 | 0.00 | 0.00 | 41 | 1016.8 |
| 20260502231009 | 48 | 223 | 6.1 | 13.0 | 0.00 | 0.00 | 0.00 | 41 | 1016.8 |
| 20260502230511 | 49 | 298 | 7.8 | 13.0 | 0.00 | 0.00 | 0.00 | 40 | 1016.8 |
| 20260502230029 | 49 | 296 | 2.6 | 11.3 | 0.00 | 0.00 | 0.00 | 41 | 1016.9 |
| 20260502225511 | 49 | 310 | 4.3 | 11.3 | 0.00 | 0.00 | 0.00 | 40 | 1016.8 |
| 20260502225010 | 49 | 259 | 6.1 | 11.3 | 0.00 | 0.00 | 0.00 | 42 | 1016.8 |
| 20260502224528 | 49 | 240 | 6.1 | 12.2 | 0.00 | 0.00 | 0.00 | 41 | 1016.9 |
| 20260502224007 | 49 | 312 | 6.1 | 13.0 | 0.00 | 0.00 | 0.00 | 42 | 1016.9 |
| 20260502223511 | 49 | 269 | 7.8 | 13.0 | 0.00 | 0.00 | 0.00 | 41 | 1016.8 |
| 20260502223021 | 48 | 315 | 6.1 | 10.4 | 0.00 | 0.00 | 0.00 | 41 | 1016.8 |
| 20260502222507 | 48 | 296 | 4.3 | 9.6 | 0.00 | 0.00 | 0.00 | 41 | 1016.9 |
| 20260502222012 | 47 | 260 | 5.2 | 11.3 | 0.00 | 0.00 | 0.00 | 43 | 1016.9 |
| 20260502221529 | 48 | 284 | 4.3 | 11.3 | 0.00 | 0.00 | 0.00 | 42 | 1017.0 |
| 20260502221010 | 49 | 228 | 6.1 | 10.4 | 0.00 | 0.00 | 0.00 | 41 | 1016.9 |
| 20260502220512 | 49 | 316 | 4.3 | 11.3 | 0.00 | 0.00 | 0.00 | 42 | 1016.9 |
| 20260502220028 | 49 | 254 | 6.1 | 11.3 | 0.00 | 0.00 | 0.00 | 42 | 1016.9 |
| 20260502215512 | 49 | 270 | 5.2 | 13.0 | 0.00 | 0.00 | 0.00 | 40 | 1016.9 |
| 20260502215005 | 49 | 294 | 7.8 | 13.0 | 0.00 | 0.00 | 0.00 | 40 | 1016.9 |
| 20260502214513 | 48 | 275 | 5.2 | 12.2 | 0.00 | 0.00 | 0.00 | 41 | 1016.8 |
| 20260502214012 | 49 | 244 | 7.0 | 11.3 | 0.00 | 0.00 | 0.00 | 41 | 1016.8 |
| 20260502213508 | 49 | 327 | 1.7 | 10.4 | 0.00 | 0.00 | 0.00 | 45 | 1016.8 |
| 20260502213023 | 48 | 269 | 6.1 | 11.3 | 0.00 | 0.00 | 0.00 | 42 | 1016.8 |
| 20260502212506 | 49 | 269 | 7.0 | 12.2 | 0.00 | 0.00 | 0.00 | 44 | 1016.8 |
| 20260502212009 | 48 | 297 | 5.2 | 12.2 | 0.00 | 0.00 | 0.00 | 41 | 1016.8 |
| 20260502211525 | 49 | 271 | 5.2 | 11.3 | 0.00 | 0.00 | 0.00 | 41 | 1016.9 |
| 20260502211003 | 48 | 217 | 5.2 | 11.3 | 0.00 | 0.00 | 0.00 | 42 | 1016.9 |
| 20260502210501 | 48 | 273 | 4.3 | 13.0 | 0.00 | 0.00 | 0.00 | 43 | 1017.0 |
| 20260502210010 | 49 | 294 | 8.7 | 13.0 | 0.00 | 0.00 | 0.00 | 43 | 1017.0 |
| 20260502205506 | 48 | 322 | 6.1 | 11.3 | 0.00 | 0.00 | 0.00 | 45 | 1017.0 |
| 20260502205007 | 47 | 248 | 4.3 | 8.7 | 0.00 | 0.00 | 0.00 | 45 | 1017.1 |
| 20260502204519 | 47 | 316 | 2.6 | 7.8 | 0.00 | 0.00 | 0.00 | 45 | 1017.1 |
| 20260502204006 | 47 | 229 | 4.3 | 8.7 | 0.00 | 0.00 | 0.00 | 47 | 1017.2 |
| 20260502203506 | 47 | 285 | 3.5 | 11.3 | 0.00 | 0.00 | 0.00 | 47 | 1017.3 |
| 20260502203020 | 47 | 232 | 6.1 | 13.0 | 0.00 | 0.00 | 0.00 | 46 | 1017.4 |
| 20260502202505 | 47 | 282 | 8.7 | 13.0 | 0.00 | 0.00 | 0.00 | 45 | 1017.4 |
| 20260502202013 | 48 | 292 | 7.0 | 12.2 | 0.00 | 0.00 | 0.00 | 45 | 1017.5 |
| 20260502201527 | 47 | 302 | 3.5 | 12.2 | 0.00 | 0.00 | 0.00 | 49 | 1017.6 |
| 20260502201011 | 47 | 267 | 7.0 | 12.2 | 0.00 | 0.00 | 0.00 | 47 | 1017.6 |
| 20260502200512 | 48 | 266 | 4.3 | 11.3 | 0.00 | 0.00 | 0.00 | 47 | 1017.7 |
| 20260502200024 | 48 | 316 | 7.0 | 11.3 | 0.00 | 0.00 | 0.00 | 49 | 1017.7 |
| 20260502195501 | 46 | 327 | 4.3 | 11.3 | 0.00 | 0.00 | 0.00 | 48 | 1017.7 |
| 20260502195003 | 46 | 304 | 5.2 | 11.3 | 0.00 | 0.00 | 0.00 | 47 | 1017.8 |
| 20260502194509 | 47 | 315 | 7.8 | 13.0 | 0.00 | 0.00 | 0.00 | 46 | 1017.8 |
| 20260502194003 | 46 | 266 | 1.7 | 13.0 | 0.00 | 0.00 | 0.00 | 48 | 1017.8 |
| 20260502193507 | 47 | 235 | 6.1 | 12.2 | 0.00 | 0.00 | 0.00 | 47 | 1017.8 |
| 20260502193020 | 47 | 302 | 7.8 | 17.4 | 0.00 | 0.00 | 0.00 | 44 | 1017.8 |
| 20260502192505 | 48 | 315 | 7.8 | 17.4 | 0.00 | 0.00 | 0.00 | 44 | 1017.8 |
| 20260502192009 | 47 | 292 | 4.3 | 13.0 | 0.00 | 0.00 | 0.00 | 48 | 1017.9 |
| 20260502191521 | 46 | 350 | 4.3 | 11.3 | 0.00 | 0.00 | 0.00 | 47 | 1017.9 |
| 20260502191012 | 46 | 317 | 3.5 | 11.3 | 0.00 | 0.00 | 0.00 | 47 | 1018.1 |
| 20260502190513 | 46 | 282 | 7.0 | 10.4 | 0.00 | 0.00 | 0.00 | 46 | 1018.1 |
| 20260502190030 | 46 | 270 | 5.2 | 9.6 | 0.00 | 0.00 | 0.00 | 48 | 1018.1 |
| 20260502185509 | 46 | 287 | 4.3 | 9.6 | 0.00 | 0.00 | 0.00 | 50 | 1018.2 |
| 20260502185010 | 46 | 277 | 5.2 | 13.0 | 0.00 | 0.00 | 0.00 | 46 | 1018.1 |
| 20260502184527 | 46 | 286 | 4.3 | 13.0 | 0.00 | 0.00 | 0.00 | 46 | 1018.2 |
| 20260502184005 | 46 | 231 | 4.3 | 11.3 | 0.00 | 0.00 | 0.00 | 48 | 1018.2 |
| 20260502183506 | 46 | 264 | 4.3 | 11.3 | 0.00 | 0.00 | 0.00 | 45 | 1018.2 |
| 20260502183018 | 46 | 298 | 6.1 | 11.3 | 0.00 | 0.00 | 0.00 | 48 | 1018.2 |
| 20260502182507 | 46 | 323 | 5.2 | 11.3 | 0.00 | 0.00 | 0.00 | 45 | 1018.3 |
| 20260502182006 | 45 | 279 | 4.3 | 11.3 | 0.00 | 0.00 | 0.00 | 45 | 1018.3 |
| 20260502181518 | 46 | 360 | 4.3 | 11.3 | 0.00 | 0.00 | 0.00 | 45 | 1018.4 |
| 20260502181007 | 45 | 328 | 4.3 | 11.3 | 0.00 | 0.00 | 0.00 | 48 | 1018.4 |
| 20260502180507 | 45 | 311 | 5.2 | 11.3 | 0.00 | 0.00 | 0.00 | 46 | 1018.5 |
| 20260502170510 | 44 | 25 | 1.7 | 11.3 | 0.00 | 0.00 | 0.00 | 50 | 1018.9 |
| 20260502164009 | 45 | 333 | 5.2 | 8.7 | 0.00 | 0.00 | 0.00 | 49 | 1019.2 |
| 20260502163506 | 45 | 68 | 1.7 | 8.7 | 0.00 | 0.00 | 0.00 | 52 | 1019.1 |
| 20260502163036 | 44 | 351 | 4.3 | 8.7 | 0.00 | 0.00 | 0.00 | 52 | 1019.2 |
| 20260502162510 | 43 | 346 | 3.5 | 9.6 | 0.00 | 0.00 | 0.00 | 50 | 1019.2 |
| 20260502162010 | 44 | 257 | 4.3 | 9.6 | 0.00 | 0.00 | 0.00 | 50 | 1019.2 |
| 20260502161518 | 43 | 304 | 4.3 | 9.6 | 0.00 | 0.00 | 0.00 | 50 | 1019.3 |
| 20260502161012 | 43 | 282 | 4.3 | 9.6 | 0.00 | 0.00 | 0.00 | 50 | 1019.4 |
| 20260502160506 | 43 | 249 | 0.9 | 12.2 | 0.00 | 0.00 | 0.00 | 52 | 1019.3 |
| 20260502152010 | 42 | 331 | 5.2 | 8.7 | 0.00 | 0.00 | 0.00 | 56 | 1019.3 |
| 20260502151529 | 43 | 331 | 4.3 | 11.3 | 0.00 | 0.00 | 0.00 | 54 | 1019.2 |
| 20260502151011 | 44 | 360 | 1.7 | 11.3 | 0.00 | 0.00 | 0.00 | 53 | 1019.2 |
| 20260502150510 | 44 | 315 | 4.3 | 12.2 | 0.00 | 0.00 | 0.00 | 58 | 1019.2 |
| 20260502130509 | 38 | 267 | 3.5 | 11.3 | 0.00 | 0.00 | 0.00 | 74 | 1019.2 |
| 20260502123504 | 36 | 348 | 2.6 | 7.8 | 0.00 | 0.00 | 0.00 | 77 | 1019.2 |
| 20260502123004 | 36 | 299 | 2.6 | 7.8 | 0.00 | 0.00 | 0.00 | 77 | 1019.2 |
| 20260502122504 | 36 | 346 | 1.7 | 7.8 | 0.00 | 0.00 | 0.00 | 78 | 1019.1 |
| 20260502122007 | 36 | 324 | 3.5 | 7.8 | 0.00 | 0.00 | 0.00 | 77 | 1019.1 |
| 20260502121504 | 35 | 341 | 0.9 | 7.8 | 0.00 | 0.00 | 0.00 | 79 | 1019.1 |
| 20260502121003 | 35 | 329 | 2.6 | 7.8 | 0.00 | 0.00 | 0.00 | 79 | 1018.9 |
| 20260502120505 | 35 | 308 | 2.6 | 5.2 | 0.00 | 0.00 | 0.00 | 80 | 1018.9 |
| 20260502115502 | 33 | 5 | 1.7 | 7.8 | 0.00 | 0.00 | 0.00 | 81 | 1018.7 |
| 20260502115008 | 33 | 297 | 1.7 | 7.0 | 0.00 | 0.00 | 0.00 | 82 | 1018.7 |
| 20260502114516 | 33 | 297 | 3.5 | 7.8 | 0.00 | 0.00 | 0.00 | 81 | 1018.7 |
| 20260502114007 | 32 | 319 | 3.5 | 7.8 | 0.00 | 0.00 | 0.00 | 82 | 1018.7 |
| 20260502113507 | 32 | 300 | 4.3 | 7.8 | 0.00 | 0.00 | 0.00 | 82 | 1018.6 |
| 20260502113004 | 32 | 315 | 3.5 | 6.1 | 0.00 | 0.00 | 0.00 | 83 | 1018.6 |
| 20260502112503 | 32 | 265 | 2.6 | 6.1 | 0.00 | 0.00 | 0.00 | 83 | 1018.6 |
| 20260502112003 | 31 | 304 | 1.7 | 6.1 | 0.00 | 0.00 | 0.00 | 83 | 1018.6 |
| 20260502111504 | 31 | 296 | 1.7 | 6.1 | 0.00 | 0.01 | 0.00 | 83 | 1018.4 |
| 20260502111004 | 31 | 306 | 2.6 | 6.1 | 0.00 | 0.01 | 0.00 | 84 | 1018.4 |
| 20260502110503 | 31 | 309 | 1.7 | 6.1 | 0.00 | 0.01 | 0.00 | 84 | 1018.4 |
| 20260502110013 | 31 | 281 | 1.7 | 4.3 | 0.00 | 0.01 | 0.00 | 84 | 1018.4 |
| 20260502105506 | 31 | 319 | 1.7 | 6.1 | 0.00 | 0.01 | 0.00 | 84 | 1018.4 |
| 20260502105006 | 30 | 322 | 2.6 | 6.1 | 0.00 | 0.01 | 0.00 | 84 | 1018.4 |
| 20260502104515 | 30 | 293 | 1.7 | 7.8 | 0.00 | 0.01 | 0.00 | 84 | 1018.3 |
| 20260502104006 | 30 | 288 | 1.7 | 7.8 | 0.00 | 0.01 | 0.00 | 84 | 1018.4 |
| 20260502103505 | 30 | 284 | 3.5 | 7.8 | 0.00 | 0.01 | 0.00 | 84 | 1018.3 |
| 20260502103022 | 30 | 284 | 0.9 | 3.5 | 0.00 | 0.01 | 0.00 | 84 | 1018.3 |
| 20260502102509 | 30 | 314 | 0.9 | 3.5 | 0.00 | 0.01 | 0.00 | 84 | 1018.2 |
| 20260502102012 | 30 | 315 | 1.7 | 3.5 | 0.00 | 0.01 | 0.00 | 84 | 1018.2 |
| 20260502101503 | 30 | 301 | 0.9 | 2.6 | 0.00 | 0.01 | 0.00 | 84 | 1018.2 |
| 20260502101001 | 30 | 280 | 0.9 | 2.6 | 0.00 | 0.01 | 0.00 | 83 | 1018.2 |
| 20260502100502 | 30 | 295 | 0.0 | 2.6 | 0.00 | 0.01 | 0.00 | 83 | 1018.3 |
| 20260502091520 | 31 | 266 | 0.9 | 3.5 | 0.00 | 0.01 | 0.00 | 82 | 1018.1 |
| 20260502091008 | 31 | 277 | 1.7 | 3.5 | 0.00 | 0.01 | 0.00 | 82 | 1018.2 |
| 20260502090508 | 31 | 300 | 0.9 | 3.5 | 0.00 | 0.01 | 0.00 | 82 | 1018.0 |
| 20260502071516 | 32 | 271 | 1.7 | 7.0 | 0.00 | 0.01 | 0.00 | 78 | 1017.7 |
| 20260502071008 | 32 | 275 | 1.7 | 3.5 | 0.00 | 0.01 | 0.00 | 77 | 1017.8 |
| 20260502070508 | 33 | 277 | 1.7 | 6.1 | 0.00 | 0.01 | 0.00 | 77 | 1017.7 |
| 20260502070022 | 33 | 300 | 2.6 | 6.1 | 0.00 | 0.01 | 0.00 | 77 | 1017.8 |
| 20260502065510 | 33 | 290 | 2.6 | 5.2 | 0.00 | 0.02 | 0.00 | 77 | 1017.8 |
| 20260502065011 | 33 | 269 | 1.7 | 7.0 | 0.00 | 0.03 | 0.00 | 77 | 1017.8 |
| 20260502064531 | 33 | 282 | 2.6 | 7.0 | 0.00 | 0.03 | 0.00 | 76 | 1017.8 |
| 20260502064008 | 33 | 293 | 1.7 | 6.1 | 0.00 | 0.04 | 0.00 | 77 | 1017.8 |
| 20260502063506 | 33 | 298 | 3.5 | 6.1 | 0.00 | 0.04 | 0.00 | 77 | 1017.8 |
| 20260502063029 | 33 | 284 | 2.6 | 5.2 | 0.00 | 0.05 | 0.00 | 77 | 1017.9 |
| 20260502062504 | 33 | 267 | 2.6 | 5.2 | 0.00 | 0.05 | 0.00 | 77 | 1018.0 |
| 20260502062003 | 33 | 289 | 1.7 | 3.5 | 0.00 | 0.05 | 0.00 | 77 | 1018.0 |
| 20260502061511 | 33 | 285 | 1.7 | 3.5 | 0.00 | 0.05 | 0.00 | 77 | 1018.0 |
| 20260502061004 | 33 | 279 | 1.7 | 5.2 | 0.00 | 0.06 | 0.00 | 77 | 1018.1 |
| 20260502060504 | 33 | 286 | 0.9 | 5.2 | 0.00 | 0.07 | 0.00 | 77 | 1018.1 |
| 20260502060016 | 33 | 283 | 0.9 | 3.5 | 0.00 | 0.08 | 0.00 | 77 | 1018.1 |
| 20260502055505 | 33 | 274 | 1.7 | 3.5 | 0.00 | 0.09 | 0.00 | 76 | 1018.1 |
| 20260502055008 | 33 | 288 | 1.7 | 3.5 | 0.00 | 0.10 | 0.00 | 76 | 1018.1 |
| 20260502054524 | 33 | 296 | 1.7 | 3.5 | 0.00 | 0.11 | 0.00 | 76 | 1018.2 |
| 20260502054007 | 33 | 279 | 0.0 | 2.6 | 0.00 | 0.12 | 0.00 | 76 | 1018.3 |
| 20260502053507 | 33 | 263 | 0.0 | 3.5 | 0.00 | 0.13 | 0.00 | 75 | 1018.2 |
| 20260502053028 | 33 | 263 | 0.9 | 3.5 | 0.00 | 0.15 | 0.00 | 75 | 1018.2 |
| 20260502052510 | 33 | 283 | 0.9 | 3.5 | 0.00 | 0.15 | 0.00 | 75 | 1018.2 |
| 20260502052009 | 33 | 271 | 0.9 | 3.5 | 0.00 | 0.16 | 0.00 | 74 | 1018.3 |
| 20260502051533 | 33 | 285 | 1.7 | 3.5 | 0.00 | 0.16 | 0.00 | 74 | 1018.3 |
| 20260502051003 | 33 | 270 | 1.7 | 3.5 | 0.00 | 0.17 | 0.00 | 74 | 1018.3 |
| 20260502050507 | 33 | 262 | 0.9 | 3.5 | 0.00 | 0.17 | 0.00 | 74 | 1018.2 |